Total_Precipitation_Accumulation
2.49 2.57 2.52 2.46 2.46 2.41 2.45 2.67 2.83 2.62 2.36 2.13 1.99 1.98 2.07 2.10 2.16 1.87 1.78 1.64 1.44 1.45 1.51 1.57 1.78 2.07 2.32 2.58 2.81 2.80 3.02 3.23 3.32 3.49 3.58 3.52 3.52 3.44
2.46 2.60 2.64 2.59 2.62 2.58 2.52 2.55 2.53 2.57 2.41 2.10 1.92 1.89 2.08 2.05 2.22 1.91 1.83 1.97 1.69 1.59 1.53 1.42 1.43 1.49 1.58 1.83 2.16 2.33 2.38 2.48 2.58 2.87 3.18 3.28 3.23 3.12
2.23 2.35 2.50 2.57 2.70 2.76 2.80 2.73 2.62 2.58 2.47 2.17 1.96 1.88 2.11 2.18 2.14 2.06 1.89 1.84 1.80 1.77 1.63 1.54 1.46 1.34 1.39 1.47 1.73 1.98 2.21 2.08 1.92 2.07 2.37 2.56 2.82 2.94
2.16 2.11 2.18 2.27 2.39 2.58 2.71 2.69 2.70 2.61 2.57 2.50 2.25 1.99 1.92 2.03 2.14 2.28 2.14 1.89 1.84 1.97 1.85 1.72 1.62 1.47 1.36 1.34 1.44 1.56 1.77 1.86 1.65 1.54 1.68 1.88 2.10 2.37
2.03 1.91 1.87 1.97 2.11 2.27 2.36 2.47 2.61 2.67 2.71 2.65 2.53 2.30 2.02 2.03 2.14 2.23 2.26 2.31 2.03 1.97 1.94 1.89 1.80 1.72 1.60 1.41 1.30 1.32 1.37 1.50 1.50 1.37 1.33 1.50 1.66 1.87
1.74 1.66 1.64 1.68 1.82 2.02 2.12 2.33 2.56 2.69 2.75 2.74 2.66 2.39 2.18 2.12 2.11 2.20 2.34 2.41 2.34 2.08 1.98 1.87 1.96 1.90 1.72 1.55 1.39 1.34 1.37 1.45 1.48 1.47 1.32 1.27 1.36 1.44
1.56 1.38 1.33 1.43 1.49 1.63 1.63 1.90 2.20 2.46 2.57 2.62 2.60 2.43 2.18 2.07 1.92 1.99 2.18 2.36 2.40 2.32 2.26 1.95 1.86 1.82 1.76 1.70 1.57 1.47 1.41 1.51 1.55 1.57 1.55 1.38 1.34 1.33
1.42 1.28 1.22 1.26 1.20 1.22 1.28 1.53 1.85 2.04 2.20 2.36 2.42 2.29 2.10 2.00 2.05 2.04 2.06 2.12 2.15 2.03 2.04 2.06 1.93 1.84 1.78 1.73 1.75 1.67 1.55 1.52 1.59 1.62 1.67 1.60 1.50 1.51
1.34 1.36 1.25 1.16 1.29 1.16 1.15 1.26 1.35 1.49 1.66 1.91 2.10 2.08 2.19 2.11 2.00 1.90 1.90 1.93 1.94 1.98 2.01 2.04 1.89 1.79 1.69 1.67 1.85 1.73 1.68 1.65 1.69 1.75 1.69 1.73 1.68 1.61
1.38 1.47 1.46 1.35 1.33 1.45 1.37 1.36 1.31 1.25 1.38 1.30 1.46 1.84 2.01 2.12 2.10 2.10 2.18 2.08 1.89 1.89 1.94 2.01 1.83 1.69 1.57 1.51 1.65 1.57 1.50 1.51 1.61 1.79 1.88 1.88 1.93 1.86
1.27 1.42 1.49 1.39 1.53 1.67 1.70 1.71 1.61 1.44 1.58 1.61 1.50 1.60 1.80 1.89 1.99 2.05 2.08 2.01 1.91 1.77 1.65 1.70 1.62 1.59 1.59 1.51 1.48 1.56 1.49 1.46 1.44 1.46 1.56 1.65 1.80 1.97
1.30 1.34 1.56 1.48 1.51 1.51 1.54 1.65 1.60 1.43 1.29 1.31 1.29 1.21 1.16 1.30 1.56 1.64 1.90 2.04 1.97 1.84 1.61 1.59 1.64 1.65 1.63 1.46 1.35 1.40 1.42 1.53 1.52 1.46 1.48 1.53 1.64 1.70
1.38 1.42 1.42 1.59 1.45 1.40 1.38 1.34 1.43 1.44 1.43 1.47 1.50 1.37 1.28 1.25 1.27 1.32 1.54 1.81 1.97 1.85 1.66 1.59 1.65 1.67 1.58 1.37 1.27 1.26 1.29 1.31 1.36 1.44 1.52 1.63 1.69 1.63
1.23 1.25 1.23 1.40 1.26 1.20 1.14 1.18 1.31 1.39 1.44 1.57 1.56 1.47 1.42 1.36 1.34 1.36 1.42 1.53 1.62 1.70 1.73 1.75 1.73 1.66 1.59 1.38 1.27 1.24 1.24 1.25 1.23 1.27 1.32 1.60 1.75 1.82
1.01 1.18 1.21 1.19 1.13 1.04 1.09 1.15 1.19 1.21 1.32 1.43 1.42 1.34 1.33 1.40 1.44 1.42 1.45 1.50 1.46 1.39 1.42 1.52 1.66 1.70 1.67 1.53 1.32 1.27 1.29 1.25 1.20 1.21 1.25 1.32 1.39 1.56
0.96 1.07 1.12 1.07 1.04 1.01 1.05 1.09 1.11 1.16 1.25 1.28 1.27 1.29 1.30 1.38 1.48 1.46 1.48 1.56 1.61 1.47 1.39 1.45 1.57 1.73 1.70 1.54 1.46 1.36 1.33 1.33 1.26 1.23 1.21 1.26 1.35 1.45
1.06 1.03 1.02 1.00 0.99 1.02 1.04 1.03 1.09 1.15 1.16 1.14 1.20 1.26 1.26 1.31 1.36 1.37 1.41 1.47 1.49 1.38 1.34 1.40 1.48 1.60 1.64 1.63 1.64 1.50 1.47 1.46 1.45 1.43 1.37 1.31 1.30 1.37
1.10 1.14 1.16 1.20 1.21 1.18 1.14 1.05 1.02 1.05 1.11 1.19 1.24 1.28 1.29 1.28 1.31 1.34 1.37 1.45 1.45 1.34 1.27 1.30 1.44 1.59 1.61 1.48 1.38 1.35 1.39 1.43 1.48 1.57 1.54 1.43 1.32 1.32
1.04 1.18 1.20 1.18 1.14 1.11 1.07 1.02 0.96 0.93 0.97 1.09 1.24 1.35 1.36 1.35 1.39 1.44 1.43 1.38 1.36 1.35 1.30 1.27 1.37 1.55 1.60 1.36 1.17 1.13 1.17 1.23 1.37 1.46 1.46 1.38 1.27 1.29
0.98 1.06 1.07 1.06 1.01 0.97 0.92 0.89 0.90 0.90 0.92 0.98 1.03 1.13 1.30 1.41 1.48 1.50 1.53 1.56 1.54 1.50 1.44 1.31 1.28 1.37 1.52 1.45 1.27 1.08 1.07 1.15 1.28 1.35 1.36 1.35 1.31 1.37
0.87 0.88 0.86 0.85 0.85 0.85 0.85 0.89 0.95 0.93 0.93 0.97 0.98 1.00 1.10 1.26 1.43 1.52 1.57 1.66 1.62 1.57 1.54 1.42 1.38 1.57 1.51 1.52 1.46 1.15 1.01 1.11 1.23 1.25 1.31 1.44 1.43 1.35
0.80 0.81 0.84 0.83 0.80 0.80 0.83 0.88 0.97 0.99 0.96 0.99 1.04 1.07 1.15 1.22 1.27 1.38 1.54 1.58 1.49 1.42 1.41 1.40 1.46 1.56 1.56 1.63 1.53 1.29 1.15 1.11 1.19 1.31 1.36 1.46 1.49 1.46
0.76 0.79 0.84 0.85 0.84 0.88 0.89 0.90 0.96 1.02 1.01 1.01 1.04 1.10 1.17 1.26 1.31 1.34 1.37 1.41 1.45 1.47 1.47 1.47 1.48 1.50 1.53 1.58 1.64 1.57 1.41 1.30 1.27 1.29 1.29 1.46 1.46 1.34